Lawrence, MA

1:55 PM EST on November 15, 2019 (GMT -0500)
Lawrence Municipal

Weather History for KLWM - August, 2019

Change the Weather History Date:

Thursday, August 15, 2019

  Actual Average Record
Temperature  
Mean Temperature 69 °F -  
Max Temperature 79 °F 82 °F 96 °F (1959)
Min Temperature 60 °F 61 °F 48 °F (1964)
Cooling Degree Days 4    
Growing Degree Days 19 (Base 50)    
Moisture  
Dew Point 62 °F    
Average Humidity 80    
Maximum Humidity 100    
Minimum Humidity 56    
Precipitation  
Precipitation 0.00 in - - ()
Sea Level Pressure  
Sea Level Pressure 30.06 in    
Wind  
Wind Speed 3 mph (East)    
Max Wind Speed 9 mph    
Max Gust Speed -    
Visibility 9 miles    
Events Fog    
Averages and records for this station are not official NWS values.
T = Trace of Precipitation, MM = Missing Value Source: NWS Daily Summary

Daily Weather History Graph

Daily Weather History Graph

Search for Another Location

Airport or City:

Astronomy

Aug. 15, 2019 Rise Set
Actual Time 5:50 AM EDT 7:46 PM EDT
Civil Twilight 5:20 AM EDT 8:16 PM EDT
Nautical Twilight 4:42 AM EDT 8:54 PM EDT
Astronomical Twilight 4:02 AM EDT 9:34 PM EDT
Moon 8:13 PM EDT 5:40 AM EDT
Length of Visible Light 14h 56m
Length of Day
13h 55m
Full, 100% of the Moon is Illuminated
Aug 15
Full
Aug 23
Last Quarter
Aug 30
New
Sep 5
First Quarter
Sep 14
Full

Hourly Weather History & Observations

Time (EDT) Temp. Dew Point Humidity Pressure Visibility Wind Dir Wind Speed Gust Speed Precip Events Conditions
7:00 AM 60.8 °F 60.8 °F 100% 30.03 in 0.5 mi Calm Calm - N/A Fog Fog
7:22 AM 61.0 °F 60.1 °F 97% 30.04 in 3.0 mi Calm Calm - N/A   Overcast
7:54 AM 62.1 °F 61.0 °F 96% 30.05 in 3.0 mi Calm Calm - N/A   Mostly Cloudy
8:00 AM 62.6 °F 60.8 °F 94% 30.05 in 3.0 mi Calm Calm - N/A   Mostly Cloudy
8:54 AM 64.9 °F 63.0 °F 93% 30.06 in 10.0 mi North 4.6 mph - N/A   Overcast
9:35 AM 66.9 °F 62.1 °F 84% 30.07 in 10.0 mi ENE 4.6 mph - N/A   Mostly Cloudy
9:54 AM 69.1 °F 62.1 °F 78% 30.08 in 10.0 mi Variable 3.5 mph - N/A   Partly Cloudy
10:54 AM 72.0 °F 62.1 °F 71% 30.08 in 10.0 mi East 5.8 mph - N/A   Clear
11:54 AM 75.0 °F 62.1 °F 64% 30.08 in 10.0 mi NE 6.9 mph - N/A   Clear
12:54 PM 78.1 °F 62.1 °F 58% 30.06 in 10.0 mi East 5.8 mph - N/A   Clear
1:54 PM 78.1 °F 62.1 °F 58% 30.05 in 10.0 mi ENE 8.1 mph - N/A   Clear
2:54 PM 78.1 °F 61.0 °F 56% 30.05 in 10.0 mi ENE 6.9 mph - N/A   Scattered Clouds
3:54 PM 77.0 °F 62.1 °F 60% 30.04 in 10.0 mi East 9.2 mph - N/A   Scattered Clouds
4:54 PM 75.9 °F 61.0 °F 60% 30.04 in 10.0 mi SE 6.9 mph - N/A   Clear
5:54 PM 75.0 °F 61.0 °F 62% 30.04 in 10.0 mi SSE 5.8 mph - N/A   Clear
6:54 PM 71.1 °F 62.1 °F 73% 30.05 in 10.0 mi SE 3.5 mph - N/A   Clear
7:54 PM 66.9 °F 62.1 °F 84% 30.06 in 10.0 mi Calm Calm - N/A   Clear
8:47 PM 66.0 °F 62.1 °F 87% 30.08 in 10.0 mi Calm Calm - N/A   Partly Cloudy
8:54 PM 64.9 °F 62.1 °F 90% 30.08 in 10.0 mi Variable 3.5 mph - N/A   Scattered Clouds
9:30 PM 64.9 °F 62.1 °F 90% 30.08 in 10.0 mi Variable 3.5 mph - N/A   Mostly Cloudy
9:54 PM 64.9 °F 62.1 °F 90% 30.08 in 10.0 mi Variable 3.5 mph - N/A   Overcast
10:54 PM 64.0 °F 62.1 °F 93% 30.08 in 10.0 mi Calm Calm - N/A   Mostly Cloudy
11:54 PM 64.0 °F 62.1 °F 93% 30.10 in 10.0 mi Calm Calm - 0.00 in   Overcast